[[{"header":{"parameterUnit":"m.s-1","parameterCategory":1,"la1":30.2991,"la2":30.254,"lo1":-89.0895,"lo2":-89.0444,"dy":0.0017,"dx":0.0017,"nx":28,"ny":28,"refTime":"2024-07-13T03:00:00:Z","depth":0,"parameterNumber":2,"parameterNumberName":"U-component_of_WINDS"},"data":[0,0,0,0,0,0,0,0,0,0,0,0,0,0,0,0,0,0,0,0,0,0,0,0,0,0,0,0,0,0,0,0,0,0,0,0,0,0,0,0,0,0,0,0,0,0,0,0,0,0,0,0,0,0,0,0,0,0,2.4416,2.4416,0,2.4469,2.447,2.447,2.4432,2.443,2.4428,2.4426,2.4481,2.4484,2.4487,0,0,0,0,0,0,0,0,0,0,0,0,0,2.4281,2.4284,2.4416,2.4417,2.4417,2.4469,2.447,2.447,2.4432,2.443,2.4428,2.4426,2.448,2.4484,2.4488,0,0,0,0,0,0,0,0,0,0,0,0,0,2.4338,2.4285,2.4416,2.4404,2.4404,2.4469,2.447,2.4471,2.4432,2.443,2.4427,2.4425,2.4479,2.4484,2.4488,2.4568,0,0,2.4502,2.4504,0,0,0,0,0,0,0,0,2.4334,2.4343,2.4405,2.4405,2.4405,2.4441,2.4442,2.4503,2.4433,2.4421,2.4426,2.4423,2.447,2.4475,2.4491,2.457,2.4573,2.4503,2.4505,2.4507,2.4509,0,0,0,0,0,0,0,2.4331,2.434,2.4437,2.4406,2.4406,2.4396,2.4402,2.4454,2.446,2.4422,2.442,2.4426,2.4469,2.4487,2.4492,2.4574,2.4502,2.4507,2.4509,2.4511,2.4722,2.4724,0,0,0,0,0,0,2.4328,2.4337,2.4435,2.4438,2.4362,2.4401,2.4407,2.4432,2.4459,2.446,2.4428,2.4424,2.448,2.4487,2.4494,2.4589,2.4507,2.4512,2.4514,2.4719,2.4722,2.4725,0,0,0,0,0,0,2.4325,2.4337,2.4433,2.4387,2.4399,2.4406,2.4435,2.4434,2.4451,2.4464,2.4464,2.4445,2.4478,2.4487,2.455,2.459,2.4514,2.4518,2.4715,2.472,2.4724,2.478,0,0,0,0,0,0,2.4321,2.4336,2.4366,2.4388,2.4401,2.4488,2.4437,2.4437,2.4459,2.4454,2.4479,2.4481,2.4477,2.4543,2.4554,2.4595,2.4521,2.4712,2.4717,2.4722,2.4775,2.4786,2.4795,0,0,0,0,0,2.4317,2.438,2.4368,2.438,2.4439,2.4491,2.4498,2.4492,2.4463,2.4493,2.4501,2.448,2.4584,2.455,2.4562,2.4605,2.4709,2.4716,2.4722,2.477,2.4784,2.4795,0,0,0,0,0,0,2.4363,2.4383,2.437,2.4442,2.4465,2.4484,2.4522,2.4507,2.4539,2.4533,2.4524,2.453,2.4596,2.4607,2.4568,2.4684,2.4642,2.4651,2.4674,2.4687,2.4697,2.4694,2.4525,0,0,0,0,0,2.4382,2.4422,2.4437,2.4499,2.4511,2.4515,2.4537,2.4531,2.4554,2.4564,2.4576,2.46,2.4638,2.4663,2.4699,2.4776,2.4781,2.4812,2.4822,2.483,2.4838,2.488,2.4894,2.4746,2.4746,2.4746,0,0,2.4421,2.4436,2.4462,2.4509,2.4526,2.4568,2.4524,2.457,2.4601,2.4571,2.4631,2.4641,2.4667,2.4737,2.4769,2.4748,2.488,2.4838,2.4845,2.4849,2.4888,2.4902,2.4915,2.4751,2.475,2.4749,0,0,2.4513,2.4529,2.4583,2.4601,2.4627,2.4629,2.4642,2.4664,2.4669,2.4729,2.4708,2.4745,2.481,2.483,2.4848,2.4948,2.493,2.496,2.5014,2.5055,2.5067,2.5077,2.5113,2.5126,2.4968,2.4968,2.4968,0,2.4558,2.462,2.4613,2.466,2.4682,2.4657,2.4711,2.4729,2.4766,2.4781,2.4758,2.484,2.4855,2.493,2.4955,2.497,2.4985,2.4957,2.5066,2.5076,2.5086,2.512,2.5133,2.4972,2.4971,2.4971,2.4971,0,2.4675,2.4718,2.4759,2.4795,2.4821,2.4872,2.4872,2.4899,2.489,2.4895,2.4956,2.4974,2.5013,2.5031,2.5022,2.5104,2.5091,2.5067,2.5025,2.5103,2.5135,2.5148,2.4977,2.4976,2.4975,2.4974,0,0,2.4798,2.4829,2.4844,2.4861,2.4888,2.4921,2.4971,2.5009,2.5033,2.5059,2.5101,2.5157,2.5135,2.5156,2.515,2.5186,2.5265,2.5158,2.5158,2.5177,2.5357,2.5375,2.539,2.5253,2.5256,2.5257,2.5355,0,2.4892,2.4979,2.4974,2.5056,2.5096,2.5073,2.5116,2.5138,2.5144,2.5179,2.5185,2.5225,2.5193,2.5205,2.524,2.5248,2.5301,2.5241,2.5292,2.5294,2.5287,2.5407,2.5426,2.5517,2.5367,2.5369,2.5371,0,2.5014,2.5044,2.513,2.5152,2.5168,2.5208,2.5242,2.5276,2.53,2.5302,2.5325,2.5313,2.5364,2.5321,2.5391,2.535,2.5371,2.5378,2.5381,2.5386,2.5337,2.5415,2.5546,2.556,2.539,2.5389,2.5387,0,2.5096,2.5158,2.5218,2.5232,2.5259,2.5287,2.5299,2.5321,2.5344,2.5374,2.5389,2.5425,2.5445,2.5473,2.5471,2.544,2.5542,2.5499,2.5545,2.5546,2.5568,2.5567,2.5705,2.5581,2.5581,2.5581,2.5581,0,2.5202,2.5255,2.5255,2.5292,2.5351,2.5344,2.5403,2.5412,2.5432,2.547,2.5452,2.5488,2.5484,2.552,2.5519,2.5578,2.5587,2.5589,2.5589,2.5591,2.5591,2.5605,2.5599,2.5585,2.5584,2.5583,2.5582,0,2.5304,2.5305,2.5369,2.5388,2.5395,2.5438,2.5454,2.5489,2.5493,2.5542,2.5553,2.556,2.5602,2.5603,2.5651,2.565,2.5722,2.5714,2.5714,2.5712,2.5759,2.5755,2.5911,2.5931,2.5794,2.5796,2.5797,0,2.5371,2.5412,2.5436,2.546,2.5474,2.5514,2.5537,2.5532,2.5557,2.5588,2.5619,2.566,2.5692,2.576,2.577,2.5807,2.5799,2.5851,2.5805,2.5806,2.5801,2.5798,2.5803,2.5861,2.5862,2.5863,2.5864,0,2.5491,2.549,2.5525,2.556,2.5589,2.5616,2.5642,2.5663,2.566,2.569,2.5733,2.5758,2.5807,2.5847,2.5883,2.5896,2.588,2.5879,2.5892,2.5895,2.5894,2.5895,2.5739,2.5875,2.5874,2.5874,2.5873,2.5872,2.5579,2.5614,2.5636,2.5675,2.5694,2.5718,2.5752,2.576,2.5796,2.5835,2.583,2.5878,2.5901,2.5947,2.5963,2.6001,2.5983,2.6001,2.6006,2.6011,2.6016,2.5887,2.6007,2.6007,2.6007,2.6006,2.6006,0,2.5698,2.5711,2.5748,2.5784,2.5815,2.5796,2.5824,2.5851,2.5893,2.5916,2.5948,2.5997,2.6036,2.6049,2.6087,2.6114,2.6108,2.6125,2.6123,2.6126,2.603,2.6015,2.6129,2.6129,2.6129,2.6129,2.6129,2.6129,2.5764,2.5823,2.5824,2.5892,2.5905,2.5951,2.5968,2.5991,2.6009,2.6065,2.6097,2.6105,2.6123,2.6163,2.6198,2.62,2.6216,2.6235,2.6235,2.6145,2.6133,2.6121,2.6107,2.6238,2.6239,2.6328,2.6329,2.6329]},{"header":{"parameterUnit":"m.s-1","parameterCategory":1,"la1":30.2991,"la2":30.254,"lo1":-89.0895,"lo2":-89.0444,"dy":0.0017,"dx":0.0017,"nx":28,"ny":28,"refTime":"2024-07-13T03:00:00:Z","depth":0,"parameterNumber":3,"parameterNumberName":"V-component_of_WINDS"},"data":[0,0,0,0,0,0,0,0,0,0,0,0,0,0,0,0,0,0,0,0,0,0,0,0,0,0,0,0,0,0,0,0,0,0,0,0,0,0,0,0,0,0,0,0,0,0,0,0,0,0,0,0,0,0,0,0,0,0,-0.932,-0.932,0,-0.9341,-0.9342,-0.9342,-0.9349,-0.9349,-0.9349,-0.9349,-0.937,-0.937,-0.9371,0,0,0,0,0,0,0,0,0,0,0,0,0,-0.9285,-0.9286,-0.932,-0.932,-0.9321,-0.9341,-0.9342,-0.9342,-0.9349,-0.9349,-0.9349,-0.9349,-0.9369,-0.937,-0.9371,0,0,0,0,0,0,0,0,0,0,0,0,0,-0.9303,-0.9286,-0.932,-0.9327,-0.9327,-0.9341,-0.9342,-0.9342,-0.9349,-0.9349,-0.9349,-0.9349,-0.9369,-0.937,-0.9371,-0.9379,0,0,-0.9374,-0.9374,0,0,0,0,0,0,0,0,-0.9302,-0.9304,-0.9325,-0.9326,-0.9327,-0.9342,-0.9337,-0.9354,-0.9349,-0.9341,-0.9349,-0.9349,-0.9361,-0.9362,-0.9366,-0.938,-0.9381,-0.9374,-0.9375,-0.9375,-0.9375,0,0,0,0,0,0,0,-0.93,-0.9303,-0.9328,-0.9326,-0.9327,-0.9328,-0.9331,-0.934,-0.9351,-0.9342,-0.9342,-0.9345,-0.9361,-0.9366,-0.9367,-0.9382,-0.9374,-0.9375,-0.9375,-0.9376,-0.9404,-0.9404,0,0,0,0,0,0,-0.9298,-0.9302,-0.9328,-0.9329,-0.9314,-0.9329,-0.9332,-0.9338,-0.9351,-0.9353,-0.9345,-0.9345,-0.9364,-0.9366,-0.9368,-0.9379,-0.9375,-0.9376,-0.9376,-0.9404,-0.9404,-0.9404,0,0,0,0,0,0,-0.9297,-0.93,-0.9327,-0.9316,-0.9319,-0.933,-0.9336,-0.9338,-0.9343,-0.9353,-0.9355,-0.9347,-0.9364,-0.9366,-0.9377,-0.9379,-0.9376,-0.9377,-0.9403,-0.9404,-0.9404,-0.94,0,0,0,0,0,0,-0.9296,-0.93,-0.9303,-0.9316,-0.932,-0.9335,-0.9337,-0.9339,-0.9344,-0.9345,-0.9356,-0.9358,-0.9364,-0.9375,-0.9378,-0.9381,-0.9378,-0.9403,-0.9403,-0.9404,-0.94,-0.94,-0.94,0,0,0,0,0,-0.9295,-0.9301,-0.9304,-0.9307,-0.9324,-0.9336,-0.9338,-0.9345,-0.9345,-0.9348,-0.9355,-0.9358,-0.9379,-0.9376,-0.9379,-0.9382,-0.9403,-0.9403,-0.9404,-0.94,-0.94,-0.94,0,0,0,0,0,0,-0.9288,-0.9303,-0.9306,-0.9316,-0.9325,-0.9337,-0.9341,-0.9345,-0.9353,-0.9353,-0.9361,-0.9364,-0.9373,-0.9379,-0.9376,-0.9391,-0.9391,-0.9392,-0.9387,-0.9388,-0.9388,-0.9386,-0.9379,0,0,0,0,0,-0.9288,-0.9297,-0.9309,-0.9317,-0.9321,-0.933,-0.9335,-0.934,-0.9349,-0.9353,-0.936,-0.9369,-0.9378,-0.9383,-0.9391,-0.9401,-0.9404,-0.9405,-0.9405,-0.9405,-0.9406,-0.9412,-0.9412,-0.9405,-0.9405,-0.9405,0,0,-0.9288,-0.9297,-0.9301,-0.9315,-0.9323,-0.9331,-0.9333,-0.9342,-0.9348,-0.9354,-0.9364,-0.937,-0.938,-0.939,-0.9395,-0.9395,-0.9408,-0.9406,-0.9406,-0.9406,-0.9412,-0.9413,-0.9413,-0.9406,-0.9405,-0.9405,0,0,-0.9291,-0.9299,-0.9306,-0.9314,-0.9325,-0.9331,-0.9333,-0.9345,-0.9349,-0.936,-0.9365,-0.9372,-0.9386,-0.9393,-0.9399,-0.9406,-0.9409,-0.9408,-0.9409,-0.9415,-0.9415,-0.9416,-0.9418,-0.9419,-0.9409,-0.9409,-0.9409,0,-0.9289,-0.9302,-0.931,-0.9318,-0.9324,-0.9331,-0.9338,-0.9345,-0.9358,-0.9362,-0.9362,-0.9381,-0.9388,-0.94,-0.9402,-0.9406,-0.9408,-0.9407,-0.9415,-0.9415,-0.9416,-0.9418,-0.9419,-0.9409,-0.9409,-0.9409,-0.9409,0,-0.9299,-0.9308,-0.9312,-0.9325,-0.9332,-0.934,-0.9349,-0.9355,-0.9359,-0.9366,-0.9376,-0.9385,-0.9396,-0.9399,-0.9403,-0.9412,-0.9412,-0.9413,-0.9413,-0.9416,-0.9419,-0.942,-0.9409,-0.9409,-0.9409,-0.9409,0,0,-0.9298,-0.9316,-0.9317,-0.9323,-0.9336,-0.9343,-0.9352,-0.9362,-0.9367,-0.9376,-0.9384,-0.9396,-0.9398,-0.9404,-0.9409,-0.9414,-0.9419,-0.9415,-0.9415,-0.9415,-0.9429,-0.9428,-0.9429,-0.9421,-0.9421,-0.9422,-0.9428,0,-0.9303,-0.9318,-0.9326,-0.9338,-0.9347,-0.9353,-0.9361,-0.9369,-0.9376,-0.9383,-0.939,-0.9399,-0.9401,-0.9405,-0.941,-0.9417,-0.9422,-0.9417,-0.9428,-0.9428,-0.9425,-0.943,-0.9428,-0.9434,-0.9429,-0.9429,-0.943,0,-0.9311,-0.932,-0.9333,-0.9346,-0.9349,-0.9356,-0.9367,-0.9374,-0.9384,-0.9388,-0.9396,-0.9401,-0.941,-0.941,-0.9422,-0.9419,-0.9424,-0.9428,-0.9429,-0.943,-0.9429,-0.9431,-0.9436,-0.9437,-0.9431,-0.9431,-0.9431,0,-0.9309,-0.9325,-0.9335,-0.934,-0.9354,-0.9359,-0.9365,-0.9375,-0.9381,-0.9391,-0.9395,-0.9405,-0.941,-0.9418,-0.9426,-0.9425,-0.9438,-0.9438,-0.9442,-0.9441,-0.9444,-0.9443,-0.945,-0.9447,-0.9447,-0.9447,-0.9447,0,-0.9313,-0.9321,-0.9334,-0.934,-0.9349,-0.9358,-0.9366,-0.9373,-0.9382,-0.939,-0.9396,-0.9403,-0.9413,-0.9421,-0.9427,-0.9437,-0.9439,-0.9443,-0.9444,-0.9442,-0.9442,-0.9445,-0.9445,-0.9447,-0.9447,-0.9447,-0.9447,0,-0.9312,-0.9321,-0.9333,-0.9346,-0.935,-0.9356,-0.9367,-0.9373,-0.938,-0.939,-0.9392,-0.9403,-0.9413,-0.9422,-0.9435,-0.9439,-0.9449,-0.9451,-0.9445,-0.9446,-0.9449,-0.9449,-0.9458,-0.9459,-0.9456,-0.9456,-0.9456,0,-0.9315,-0.9321,-0.9335,-0.9341,-0.9347,-0.9356,-0.9362,-0.9371,-0.9378,-0.939,-0.9395,-0.9405,-0.9414,-0.943,-0.9439,-0.9449,-0.9451,-0.9454,-0.9452,-0.945,-0.9451,-0.945,-0.9451,-0.9453,-0.9453,-0.9453,-0.9453,0,-0.9318,-0.9322,-0.9331,-0.9342,-0.935,-0.9359,-0.9368,-0.9372,-0.9383,-0.9389,-0.94,-0.9407,-0.9421,-0.9431,-0.9442,-0.9449,-0.9453,-0.9454,-0.9455,-0.9453,-0.9449,-0.9451,-0.9445,-0.9453,-0.9453,-0.9453,-0.9453,-0.9453,-0.9318,-0.9324,-0.9335,-0.9345,-0.9353,-0.9362,-0.9368,-0.9376,-0.9385,-0.9397,-0.9402,-0.9413,-0.9423,-0.9439,-0.9445,-0.9454,-0.9454,-0.9456,-0.9457,-0.9457,-0.9457,-0.9448,-0.9456,-0.9456,-0.9456,-0.9456,-0.9456,0,-0.9322,-0.9329,-0.9338,-0.9351,-0.9359,-0.9363,-0.9373,-0.938,-0.9389,-0.9399,-0.9407,-0.942,-0.943,-0.944,-0.9451,-0.9455,-0.9458,-0.9458,-0.9458,-0.9459,-0.9456,-0.9453,-0.9456,-0.9456,-0.9456,-0.9456,-0.9456,-0.9456,-0.9324,-0.9335,-0.934,-0.9355,-0.9362,-0.9373,-0.9379,-0.9386,-0.9394,-0.9407,-0.9416,-0.9423,-0.9432,-0.9444,-0.9454,-0.9456,-0.946,-0.946,-0.9463,-0.9459,-0.9459,-0.9459,-0.9457,-0.9461,-0.9461,-0.9466,-0.9466,-0.9466]}]]